Overview Statistics Trail Chart Weather Telemetry Raw packets
 

This is the latest recevied weather packets stored in our database for station/object KO6HRZ. If no packets are shown the sender has not sent any weather packets the latest 10 day(s).

<< 7 8 9 10 11 12 13 >>
Time Temp. Humidity Pressure Rain* Wind** Luminosity Snow
1788547617 22.78° C 60% 1012.8 hPa 0 mm - 709 W/m² -
1788547015 21.67° C 63% 1012.9 hPa 0 mm - 695 W/m² -
1788546410 22.22° C 62% 1012.7 hPa 0 mm - 225 W/m² -
1788545807 23.33° C 60% 1012.6 hPa 0 mm - 692 W/m² -
1788545202 22.22° C 63% 1012.9 hPa 0 mm - 647 W/m² -
1788544626 21.67° C 66% 1012.6 hPa 0 mm - 177 W/m² -
1788544001 21.67° C 65% 1012.8 hPa 0 mm - 636 W/m² -
1788543399 21.11° C 69% 1012.8 hPa 0 mm - 605 W/m² -
1788542796 20° C 71% 1012.9 hPa 0 mm - 119 W/m² -
1788542196 21.11° C 68% 1012.6 hPa 0 mm - 113 W/m² -
1788541593 20.56° C 72% 1012.8 hPa 0 mm - 434 W/m² -
1788540993 20° C 76% 1012.6 hPa 0 mm - 112 W/m² -
1788540393 20° C 75% 1012.4 hPa 0 mm - 405 W/m² -
1788539790 18.89° C 79% 1012.5 hPa 0 mm - 335 W/m² -
1788539185 18.89° C 78% 1012.5 hPa 0 mm - 109 W/m² -
1788538581 18.89° C 81% 1012.3 hPa 0 mm - 344 W/m² -
1788537978 17.78° C 82% 1012.2 hPa 0 mm - 103 W/m² -
1788537374 17.78° C 83% 1012.2 hPa 0 mm - 232 W/m² -
1788536773 17.22° C 87% 1012.1 hPa 0 mm - 199 W/m² -
1788536174 16.11° C 89% 1012.3 hPa 0 mm - 109 W/m² -
1788535571 16.11° C 90% 1012 hPa 0 mm - 62 W/m² -
1788534968 16.11° C 91% 1012.2 hPa 0 mm - 66 W/m² -
1788534367 15.56° C 91% 1012.1 hPa 0 mm - 76 W/m² -
1788533767 15° C 92% 1012 hPa 0 mm - 55 W/m² -
1788533164 15° C 92% 1011.9 hPa 0 mm - 43 W/m² -

* Rain latest hour (hover to see other rain measurements)
** Current wind speed in m/s (hover to see current wind gust speed)